Location: Aranbee
(34.0885°N, 118.2342°W)
Time: 13:16:10
(UTC+00:00)

Tiros 1 - Pass Details

Date: 01 December 2020
Orbit: 630 x 663 km, 48.4° (Epoch: 21 January)

Event Time Altitude Azimuth Distance (km) Brightness Sun altitude
Rises 20:43:30 0° 214° (SW) 2,973 11.6 32.1°
Reaches altitude 10° 20:45:54 10° 208° (SSW) 2,067 11.2 31.9°
Maximum altitude 20:50:27 45° 136° (SE) 898 8.6 31.6°
Drops below altitude 10° 20:55:02 10° 64° (ENE) 2,078 9.5 31.3°
Sets 20:57:27 0° 58° (ENE) 2,992 10.2 31.2°
